Theta_e
303 295 293 295 294 292 291 288 286 289 292 289 288 287 291 295 292 292 293 294 296 299 302 301 301 302 302 302 302 303 306 322 333 335 334 334 332 333 333 330 331 327 324 321
298 290 298 300 297 296 292 288 286 290 291 288 287 286 291 294 293 294 295 296 296 296 298 299 299 299 300 302 301 301 303 310 324 333 334 333 334 333 333 330 330 329 323 321
292 295 301 299 296 294 292 289 286 286 288 286 285 285 286 290 291 292 293 293 293 293 295 297 296 297 298 299 301 302 302 304 318 329 331 321 322 322 328 324 326 326 323 321
292 297 298 295 293 294 287 292 289 287 284 280 285 278 283 286 287 289 288 288 289 290 291 293 294 295 296 297 298 300 302 303 306 321 327 327 327 325 326 328 327 325 323 321
289 293 292 292 292 295 288 291 288 286 282 278 280 278 282 283 285 285 288 289 291 292 292 294 293 294 296 296 296 298 300 302 304 307 322 326 325 326 320 322 323 323 320 322
290 295 293 290 292 293 291 287 284 282 280 272 278 278 279 282 283 285 288 290 291 293 295 297 297 296 295 296 296 295 296 298 300 302 309 322 325 321 316 316 319 313 315 317
288 289 292 293 288 291 289 284 273 270 270 272 279 278 281 285 287 287 287 290 292 294 295 296 296 296 297 298 298 300 299 298 298 298 301 309 318 318 318 319 321 318 314 316
280 279 289 291 288 286 283 282 273 270 272 273 280 276 281 286 287 289 289 290 292 294 296 296 296 295 296 297 298 298 298 299 299 299 299 301 306 313 317 316 318 317 315 315
279 280 290 291 291 288 283 276 282 274 271 270 276 279 282 287 286 288 289 290 291 293 296 296 296 296 295 296 297 297 298 299 300 300 300 300 303 307 312 312 312 313 309 308
284 279 289 290 292 291 286 287 277 271 265 269 273 275 276 281 284 287 288 289 290 293 296 297 297 297 296 296 297 299 299 300 302 302 301 302 303 306 308 305 304 302 301 303
287 283 285 289 284 283 284 280 280 279 276 270 271 275 282 282 286 286 288 291 292 296 297 296 296 297 297 297 298 298 300 300 302 303 301 300 299 299 300 299 298 299 299 300
288 284 282 283 287 288 286 283 281 273 272 273 273 275 286 286 286 287 289 292 295 297 297 297 299 297 298 297 297 297 294 295 296 298 297 296 300 300 298 298 297 299 300 300
289 280 272 279 283 285 282 284 283 280 277 271 271 276 287 286 288 289 291 295 297 298 297 296 297 296 295 293 292 292 292 292 294 295 295 295 298 299 299 300 299 299 298 296
292 282 279 275 277 281 278 283 283 279 275 275 274 278 285 288 288 290 292 297 295 294 292 292 294 292 289 289 290 291 291 292 292 293 296 297 298 298 296 296 296 295 294 292
288 280 282 282 283 284 283 283 282 276 279 274 278 280 285 288 289 291 295 293 290 289 289 290 289 286 286 287 288 289 290 290 291 291 291 291 292 293 292 291 291 291 290 290
287 279 282 275 283 283 280 283 283 283 283 282 284 284 292 293 294 297 292 291 289 288 288 287 287 285 288 285 286 288 289 288 289 289 289 290 290 291 290 290 290 289 289 289
288 284 277 275 281 282 277 282 283 283 284 286 281 287 292 294 296 294 290 289 287 287 287 284 284 286 288 289 289 288 289 290 289 289 289 290 290 289 289 289 289 289 288 289
286 285 282 278 278 271 283 289 288 286 287 288 288 290 293 295 294 291 290 287 286 286 286 285 285 287 288 289 290 290 290 290 290 289 289 290 290 289 289 289 288 288 288 287
291 287 282 278 278 279 285 288 287 286 287 289 289 290 294 296 292 291 290 287 286 285 287 286 287 287 288 288 289 289 289 289 289 287 288 289 288 287 287 286 285 285 285 285
290 288 283 282 278 274 283 288 293 291 283 291 291 292 295 295 288 293 289 289 287 288 288 287 288 289 288 289 289 288 287 287 287 288 288 289 288 287 286 285 285 285 285 285
285 286 281 281 280 280 287 291 293 284 284 291 292 293 296 294 293 290 289 288 288 289 288 289 289 288 288 289 289 287 287 286 288 288 288 287 287 285 285 285 285 285 284 281
284 281 283 282 281 277 290 293 290 293 293 291 291 293 296 293 291 291 288 288 287 286 287 288 288 288 289 289 288 287 285 288 288 287 286 286 286 287 287 284 282 279 278 277
283 284 282 283 282 290 292 292 296 294 293 290 290 293 294 292 291 290 288 287 287 287 287 287 288 287 288 289 288 286 287 288 287 287 286 285 282 280 279 277 276 275 274 274
289 290 286 287 293 293 295 295 293 294 292 292 293 294 293 293 291 290 289 287 287 288 287 288 288 287 287 288 288 288 288 288 284 280 278 277 277 276 276 276 276 274 273 273
289 290 287 287 292 294 293 294 293 293 292 290 292 294 293 291 290 289 289 288 289 287 287 286 286 286 286 287 287 286 282 280 278 277 277 275 275 275 275 275 275 275 273 274
289 291 290 289 293 292 292 293 292 292 291 291 291 290 290 290 290 289 288 287 286 283 282 284 285 284 284 284 281 279 280 279 277 276 276 275 274 274 275 275 275 284 283 284
Wind_Speed
9 7 10 16 6 4 6 4 3 3 1 2 5 5 13 11 7 8 10 12 14 13 10 8 9 9 9 6 8 9 8 11 9 8 10 9 11 10 9 9 12 11 10 11
6 5 4 11 9 6 5 5 2 2 1 1 5 10 17 14 8 10 12 13 11 8 9 9 9 8 8 10 8 7 9 9 9 9 9 8 10 10 11 8 10 11 10 12
5 10 11 11 9 8 3 4 2 3 3 2 7 7 6 3 3 5 6 5 6 8 13 12 7 8 7 8 9 9 9 10 10 11 6 3 3 2 5 4 7 11 12 12
4 5 15 11 6 3 2 5 2 3 3 2 4 7 7 4 7 6 8 9 8 8 8 7 8 8 8 9 7 8 8 8 7 7 7 11 10 10 8 10 10 9 14 14
2 7 8 10 6 11 3 5 5 3 4 2 2 2 9 2 4 3 7 6 6 6 6 8 8 6 7 7 6 7 7 7 8 8 7 8 10 8 4 4 7 7 9 13
4 4 3 2 5 2 10 6 6 4 3 2 3 3 7 1 2 4 4 6 7 8 9 10 7 6 6 7 7 5 6 7 5 6 7 12 14 9 5 5 6 6 5 7
5 3 2 4 8 5 5 5 3 5 4 4 1 0 9 3 5 3 2 7 8 7 9 9 12 12 11 10 8 6 6 6 5 5 6 8 8 7 11 10 9 9 7 6
5 0 2 1 3 6 3 5 6 5 1 3 3 6 5 4 3 3 2 5 6 8 7 8 9 8 9 9 9 8 8 8 6 5 6 5 7 5 7 7 6 8 9 10
5 3 1 3 3 4 3 2 4 7 3 4 4 7 6 4 2 3 8 9 10 8 8 8 8 7 9 9 9 7 8 8 7 6 5 6 7 7 8 8 6 5 3 4
3 5 2 3 3 8 3 7 4 4 3 3 5 5 5 0 1 5 9 10 9 7 8 8 7 7 6 8 7 7 6 7 8 9 5 5 6 7 6 4 6 5 6 6
4 4 2 5 1 6 2 2 6 4 3 4 3 5 6 4 2 4 9 9 9 9 8 7 7 7 7 7 7 7 7 8 9 8 6 6 4 1 3 4 5 6 7 9
1 4 3 2 2 2 2 5 5 5 3 1 2 8 3 6 3 2 8 9 6 6 8 8 8 8 8 8 7 6 7 6 6 6 6 4 3 2 4 5 5 7 9 9
5 2 3 1 4 4 3 4 5 5 4 5 4 7 1 6 6 6 7 6 7 9 10 9 9 7 9 8 7 7 7 6 7 6 5 5 4 3 4 5 5 7 9 10
6 3 4 6 4 4 2 4 5 6 3 3 7 8 13 13 9 10 6 5 8 8 8 8 6 8 7 6 7 7 7 7 7 6 5 4 6 5 6 7 9 8 9 11
4 3 3 3 4 3 4 4 7 6 5 7 5 7 13 12 12 11 2 6 6 9 12 12 10 7 6 7 7 7 7 7 5 6 8 8 8 9 10 11 12 12 13 13
2 3 2 4 3 5 4 7 8 9 7 11 15 20 20 16 8 4 5 8 10 8 9 10 8 7 7 7 7 8 8 7 6 8 10 10 10 12 12 13 13 13 14 14
3 5 3 4 4 5 6 9 12 7 6 11 11 15 9 6 5 2 4 5 6 7 8 6 6 5 7 7 6 7 7 7 8 8 9 9 9 12 12 13 12 11 13 13
5 4 2 2 4 1 6 2 6 13 8 14 9 11 9 6 2 4 2 3 4 5 6 6 5 5 7 6 6 7 7 7 8 7 7 8 9 10 11 12 10 9 11 12
3 4 3 1 3 7 3 3 6 7 5 8 13 9 5 2 2 3 3 2 2 3 2 4 5 5 7 7 6 7 7 7 8 8 8 8 9 9 11 11 10 8 10 9
5 6 4 3 2 4 4 2 1 4 3 3 5 4 2 1 4 1 2 2 3 3 4 4 5 5 6 6 6 7 8 7 7 8 9 9 9 11 11 9 9 7 6 8
3 2 6 4 2 8 9 5 2 3 4 2 3 4 4 3 1 4 4 4 4 5 4 5 6 5 5 5 6 8 6 7 6 7 9 9 10 9 8 8 6 6 7 6
7 6 4 3 3 8 4 2 2 4 1 2 3 3 4 4 6 5 5 4 4 5 5 6 5 6 6 6 6 8 7 5 7 9 9 8 8 6 5 6 4 5 6 7
5 7 5 8 7 5 3 3 2 4 4 2 2 3 6 6 4 7 5 5 3 5 5 5 4 5 5 6 4 8 4 6 7 8 8 7 6 5 5 5 5 5 5 5
3 4 3 1 3 6 8 7 6 5 5 3 4 4 7 6 7 6 7 6 5 6 7 6 5 6 6 6 5 5 6 6 7 7 6 5 5 6 6 5 4 5 4 4
4 5 5 5 8 7 5 4 4 3 3 2 2 4 7 7 8 7 7 6 6 5 5 5 6 6 7 6 6 5 5 6 6 6 5 5 5 5 5 4 4 4 2 4
4 6 4 4 2 2 6 4 2 4 4 5 5 3 4 7 9 7 7 7 6 6 5 5 6 6 5 5 5 4 5 6 6 6 4 4 4 4 4 4 4 9 8 8
Wind_Direction
168 178 195 185 158 161 143 150 165 223 63 307 254 264 283 271 260 254 251 264 266 266 270 241 244 236 237 241 222 218 203 209 204 199 199 201 216 212 208 200 205 197 190 188
125 196 172 172 147 111 109 123 192 303 351 338 320 289 266 262 233 233 243 255 270 290 278 266 255 244 223 236 231 223 216 221 208 198 208 205 207 221 216 206 205 201 186 184
121 142 153 150 111 157 79 132 172 217 350 46 329 287 291 324 3 315 318 291 305 300 299 296 288 271 264 239 235 222 212 211 214 210 198 102 78 86 198 191 202 200 185 191
49 133 139 138 148 92 83 218 132 82 71 251 13 289 297 341 328 61 8 22 357 336 333 323 314 300 288 268 259 241 223 208 214 210 200 200 208 210 206 207 211 201 190 193
281 132 128 147 166 165 185 116 115 95 93 30 341 113 269 357 59 93 24 11 351 331 330 341 341 322 311 305 288 285 260 212 203 195 196 204 218 221 191 197 202 202 203 191
76 66 60 111 65 146 142 86 56 53 84 26 269 168 288 113 64 324 344 344 344 343 351 358 352 351 358 3 7 333 299 271 259 214 215 209 213 208 187 185 190 185 197 192
38 13 37 98 81 43 80 83 338 360 21 218 291 147 245 288 306 202 113 341 335 339 5 357 358 351 347 349 350 359 2 326 318 257 228 220 233 221 209 204 201 185 187 190
128 215 169 103 127 160 84 143 162 192 138 275 352 236 256 230 9 111 12 306 320 355 348 351 340 336 334 334 331 338 342 324 326 313 282 253 234 217 216 210 214 204 201 199
119 28 38 62 116 119 188 68 185 106 26 46 242 286 317 44 133 330 347 347 338 331 336 338 331 335 328 328 324 320 326 314 309 288 272 272 269 236 221 213 202 204 185 158
176 88 9 116 93 38 125 155 76 3 102 273 271 281 246 299 206 303 340 334 316 301 309 331 327 326 314 315 311 318 331 316 312 318 299 266 241 243 247 183 181 153 125 121
109 92 357 103 227 161 113 69 56 104 94 163 294 270 207 217 211 354 322 319 319 322 335 311 310 308 304 304 319 322 343 341 333 336 331 350 356 1 125 126 125 125 119 131
78 109 143 99 240 147 137 162 130 118 212 35 147 275 238 246 232 284 284 287 317 339 315 318 318 319 327 330 339 355 354 350 336 340 345 14 47 82 99 101 119 129 132 134
172 48 72 358 359 7 177 180 121 107 92 210 142 260 236 271 297 297 287 341 344 342 344 335 323 342 354 360 3 4 359 354 359 7 5 16 58 69 92 106 118 126 124 123
87 100 148 182 198 138 151 174 161 124 129 204 234 292 297 299 312 313 331 355 345 351 334 308 350 7 2 1 12 8 12 8 9 15 27 22 53 60 73 84 90 91 95 98
98 95 347 268 226 189 200 188 169 180 178 177 248 227 265 293 298 304 5 357 352 359 0 12 1 357 1 15 13 10 20 18 17 45 54 48 57 69 71 70 78 82 83 87
15 117 43 306 350 215 248 225 198 212 226 257 260 279 277 282 279 294 23 358 2 355 350 6 347 5 23 23 18 21 21 9 36 57 59 66 69 74 75 76 77 82 84 83
100 131 57 291 343 326 299 223 200 182 200 213 230 242 287 295 300 358 3 5 344 346 355 3 342 26 36 34 28 29 20 26 36 47 71 81 86 83 83 84 88 90 90 90
116 100 110 292 354 336 242 177 178 199 228 220 262 270 290 293 69 107 46 343 347 352 6 9 1 33 56 56 42 44 34 37 49 52 63 64 73 79 83 83 85 83 86 87
111 120 110 306 279 287 299 168 148 177 269 205 223 262 279 25 119 201 58 66 21 27 53 43 35 38 55 54 57 61 54 51 57 51 46 56 66 76 78 72 72 69 73 75
77 102 117 198 269 247 250 217 63 137 318 172 185 233 240 76 352 360 108 75 89 56 51 54 55 53 59 63 75 77 66 58 58 60 65 69 75 79 72 66 71 73 91 91
125 159 210 239 251 278 250 273 128 84 237 187 210 243 183 209 159 124 127 97 79 72 59 59 60 61 58 68 79 76 72 65 61 70 75 71 71 72 81 80 67 75 76 84
182 162 182 176 218 266 189 83 176 217 245 227 234 231 202 120 132 127 129 121 111 90 70 67 63 64 63 76 89 80 66 65 72 72 71 68 69 76 80 86 74 63 80 83
214 186 183 179 214 245 209 256 252 181 219 237 229 199 153 147 177 148 141 139 121 112 94 92 88 75 66 84 85 91 78 85 79 78 75 76 67 58 65 85 84 79 77 83
246 166 206 78 258 253 258 266 253 198 212 203 225 194 169 160 158 147 140 145 139 127 115 122 120 107 93 90 81 88 103 110 105 97 87 82 87 73 59 61 66 77 76 85
199 145 209 261 285 278 253 246 273 221 210 204 168 207 188 151 163 157 147 151 139 135 130 131 117 113 113 116 114 111 103 104 95 90 86 78 74 82 82 76 101 92 75 112
194 193 200 233 288 223 267 298 280 234 232 221 184 189 180 166 158 147 148 148 147 148 142 128 121 119 125 123 119 125 128 124 120 107 103 106 96 78 73 78 43 70 84 86